ECMWFFLT1_925_thetae_057.txt.gz
Theta_e
349 349 350 350 350 350 350 352 352 352 352 352 353 353 353 353 354 355 355 356 356 357 357 356 355 356 355 356 355 353 353 353 352 353 353 353 353 353 352 351 352 351 351 352 350 350 351 351 352 353 354 353 354 356 355 355 356 356 356 355 354 353 350
349 349 349 349 350 350 350 352 353 353 351 351 352 352 352 354 354 355 355 355 356 356 357 356 355 356 355 355 355 354 354 354 353 353 354 354 352 352 352 351 351 351 350 350 350 349 350 350 351 352 353 353 353 355 354 354 356 356 356 355 354 354 351
348 348 349 349 350 350 351 352 352 352 351 351 351 351 352 353 353 354 355 355 355 355 356 356 355 355 355 355 356 354 354 354 355 354 354 354 352 352 352 352 352 351 351 350 350 350 349 350 351 351 352 352 353 354 354 353 355 356 356 356 355 354 353
347 348 348 349 350 351 351 351 351 351 351 350 350 350 352 353 352 353 354 355 355 356 356 356 355 356 356 356 356 356 355 355 355 355 355 354 353 353 354 353 353 353 353 351 350 351 351 350 351 351 351 352 352 353 353 353 354 356 356 356 355 354 354
347 347 347 348 349 350 350 349 350 351 351 350 350 350 351 351 352 353 353 354 355 355 355 355 355 356 356 356 356 356 355 354 355 355 355 355 354 354 354 354 353 353 353 351 351 351 351 351 352 352 352 352 352 352 352 353 354 355 356 356 355 354 354
344 345 347 347 347 348 349 348 349 350 350 349 349 350 350 350 351 352 353 353 354 355 355 356 356 356 356 356 356 356 356 355 355 355 355 355 355 355 354 353 353 353 352 352 352 352 352 352 352 352 352 351 352 353 352 352 354 356 356 356 355 355 354
343 345 346 347 345 346 347 346 348 349 349 349 349 349 349 349 350 351 352 353 354 354 356 355 355 356 356 355 356 356 356 356 355 355 355 355 355 355 354 353 353 353 353 352 352 352 352 352 352 352 352 352 352 353 351 351 354 355 356 356 355 355 354
345 345 344 345 345 344 345 346 347 348 348 349 348 349 348 348 349 350 351 353 353 354 355 354 355 355 354 355 356 356 356 356 356 355 355 356 356 356 355 355 353 352 352 353 352 352 352 352 353 352 352 352 352 352 351 350 353 355 356 356 355 355 354
344 347 344 342 342 342 344 345 347 349 350 350 348 348 348 348 349 349 350 351 352 353 353 353 355 354 354 354 355 355 356 356 357 356 356 356 356 356 356 355 354 353 352 353 353 353 352 352 353 352 352 352 352 352 351 351 353 355 356 356 355 355 354
346 349 347 344 341 342 343 344 348 351 352 352 350 349 348 348 348 348 349 350 350 352 353 352 354 354 354 354 355 355 356 357 357 357 356 357 357 357 356 356 355 354 353 353 353 354 352 352 353 352 352 352 352 352 352 352 353 355 356 355 355 355 354
347 351 351 347 345 345 344 344 349 353 353 353 351 350 349 348 348 348 348 350 349 351 352 352 353 354 354 354 355 356 356 357 357 357 356 357 356 356 356 356 356 355 354 354 354 354 353 352 352 353 353 352 351 351 351 352 353 354 355 355 355 354 354
346 352 355 352 349 349 348 349 352 353 354 353 351 350 349 348 348 348 348 349 349 350 351 351 352 353 354 355 355 355 356 357 356 357 357 356 356 356 356 356 356 356 355 354 354 355 354 353 353 353 353 352 351 351 350 351 353 354 354 354 354 354 353
345 350 352 353 352 352 353 354 353 353 353 353 351 350 350 349 348 348 349 349 348 349 351 351 352 353 354 354 354 356 357 357 356 357 357 357 357 357 356 356 356 356 356 356 355 355 355 355 354 353 353 352 352 351 351 351 353 353 353 353 353 354 353
343 345 348 351 352 355 357 355 353 353 353 352 351 350 349 349 348 348 348 349 349 349 350 352 353 353 354 354 354 356 356 356 356 356 357 357 357 357 357 357 357 356 356 356 356 356 356 356 356 354 353 353 352 352 352 352 353 353 353 353 353 353 352
340 339 344 348 351 354 357 356 354 354 353 351 351 351 350 349 348 348 348 349 350 349 350 352 352 352 353 354 355 355 354 354 356 356 356 357 357 357 357 357 357 357 357 357 356 356 356 356 356 356 355 354 353 353 353 353 353 353 353 353 352 352 352
339 337 340 346 350 353 354 355 355 354 354 353 352 351 350 349 348 348 348 349 349 349 350 351 350 351 354 355 354 352 352 353 355 356 356 357 357 357 357 357 357 357 357 357 357 356 356 356 357 357 356 355 354 354 354 354 353 353 353 352 352 351 351
338 340 341 343 348 350 352 353 354 354 355 354 352 352 350 348 349 348 348 348 348 349 350 350 350 351 353 354 352 351 352 353 354 356 356 356 357 357 357 357 357 357 358 357 357 357 357 357 357 357 357 357 356 355 355 354 353 353 352 352 352 351 351
346 345 342 342 345 347 349 350 351 353 353 350 350 351 349 348 349 349 349 349 348 349 350 350 352 352 352 352 352 352 353 354 355 355 356 356 357 357 357 357 358 358 358 358 358 358 358 357 358 358 357 357 357 357 356 355 354 353 353 352 351 351 350
355 349 343 342 342 343 345 346 347 350 350 349 349 349 348 348 349 349 349 348 348 349 350 350 351 352 351 352 353 353 354 354 355 355 356 356 356 357 357 357 358 359 358 359 358 358 358 358 358 358 358 358 358 357 357 356 354 353 352 352 352 351 351
357 353 350 348 345 341 342 345 346 348 349 349 348 346 346 347 348 348 348 348 348 349 349 350 350 351 352 352 353 353 354 355 356 356 357 357 356 357 358 357 358 358 358 359 358 359 359 358 358 358 358 358 357 357 357 357 355 354 353 352 352 351 350
357 357 356 356 354 351 349 348 347 348 349 348 346 345 346 347 346 347 348 349 349 348 349 349 350 351 352 353 354 354 354 356 356 357 358 358 358 358 358 358 359 358 358 359 359 359 359 358 359 359 358 358 358 357 357 357 356 354 353 352 352 352 351
356 355 355 355 355 354 354 352 348 347 347 348 346 346 346 346 346 347 348 348 349 350 351 351 352 353 354 355 355 355 356 357 358 358 359 359 359 359 358 359 359 359 359 359 359 360 360 359 359 359 358 358 358 357 357 357 356 355 354 353 352 352 350
352 352 352 351 351 353 356 356 353 348 347 348 347 346 347 347 347 348 348 349 350 351 351 353 355 355 354 355 356 356 357 357 357 359 359 359 360 360 359 359 359 360 359 359 359 359 359 360 359 359 359 358 358 358 358 357 357 355 354 353 353 352 351
349 350 349 349 350 352 355 357 354 347 345 347 347 347 348 347 347 349 351 351 350 350 352 354 356 355 353 355 356 356 356 355 355 357 359 360 360 360 360 360 360 360 360 359 359 359 359 360 360 359 360 359 358 359 358 357 357 356 355 354 353 352 351
349 348 349 350 351 351 353 356 354 348 345 349 350 350 348 348 348 350 352 352 350 351 353 355 355 353 353 354 355 355 355 354 355 356 358 359 360 360 360 361 361 361 360 359 359 360 360 360 360 360 360 359 359 358 358 358 358 356 355 355 353 353 352
348 346 348 351 352 352 353 356 356 354 354 355 355 352 349 350 351 351 353 354 353 353 355 355 353 352 352 353 354 354 354 354 355 356 358 359 359 359 360 361 361 361 360 359 359 360 360 360 360 361 360 360 359 358 357 358 358 357 355 355 354 353 352
347 347 348 350 352 353 354 354 355 355 354 355 354 352 351 353 354 355 356 356 356 356 356 354 352 352 353 353 355 356 355 355 355 356 358 359 359 359 359 360 361 361 360 360 360 360 360 360 360 360 360 360 359 359 358 358 358 357 356 355 354 354 352
346 347 349 350 350 352 353 353 353 352 352 353 353 353 352 354 356 358 358 359 359 358 356 354 352 352 352 352 354 356 356 357 357 357 358 360 360 360 359 360 360 361 361 361 361 361 361 361 361 360 360 360 359 359 359 358 358 357 356 355 354 354 353
346 347 348 349 349 350 351 351 350 351 351 352 353 354 354 355 358 359 359 360 359 355 354 354 354 353 353 353 355 356 358 359 359 358 359 361 361 361 361 361 361 362 362 362 361 362 361 361 361 361 360 360 360 359 359 358 358 357 356 355 354 354 353
346 346 347 349 349 349 350 349 348 349 349 350 352 354 355 357 359 358 357 357 356 355 355 355 353 353 355 355 355 357 358 359 359 359 361 361 362 361 362 362 362 362 363 362 362 362 361 361 361 361 360 360 360 360 359 359 358 357 355 355 354 354 353
345 346 347 347 348 348 348 347 347 347 347 349 350 351 353 355 356 355 354 355 356 359 360 359 357 355 355 355 356 357 356 357 359 359 360 362 362 362 363 363 363 363 363 363 362 362 362 362 361 361 361 360 360 360 359 359 358 356 355 354 354 354 354
344 345 346 346 347 347 347 347 347 346 346 347 348 349 350 351 352 352 352 353 356 359 361 362 362 360 358 358 357 356 356 357 357 357 359 360 361 362 363 363 363 364 363 363 362 362 362 362 361 362 361 360 360 360 360 359 357 355 354 354 354 354 353
343 344 345 346 346 346 347 347 347 346 346 346 347 348 348 348 348 349 349 351 353 356 358 360 362 362 362 361 360 359 358 357 356 356 357 358 359 360 362 362 363 363 363 363 362 362 362 362 361 361 361 361 361 360 360 359 356 353 352 353 353 353 353
343 344 345 345 345 346 347 347 347 346 346 346 346 347 347 347 347 347 347 348 350 352 354 355 357 358 359 360 361 360 360 359 358 357 357 357 357 357 359 360 361 362 362 363 363 363 362 362 362 361 361 361 361 361 360 356 352 350 351 352 353 353 351
344 344 344 345 345 345 346 347 346 346 346 346 346 346 346 346 345 345 346 346 347 349 350 351 351 352 352 353 354 354 354 356 358 358 358 358 358 358 358 358 358 360 361 361 362 362 362 362 362 362 361 361 361 361 360 355 351 351 352 353 353 353 350
343 344 345 345 344 344 345 346 345 345 345 345 345 345 345 344 344 344 344 344 345 347 348 348 349 349 348 348 348 347 347 349 350 351 351 352 351 352 352 350 350 353 355 357 358 359 360 361 361 361 361 361 361 361 360 357 355 354 352 352 353 353 351
343 343 344 344 344 344 344 344 344 345 344 344 344 344 344 344 344 343 343 343 344 344 345 346 347 346 345 344 343 342 343 344 343 343 344 344 344 345 345 345 343 342 342 344 346 349 352 356 358 360 360 360 360 361 359 358 356 353 349 349 352 353 351
341 341 341 342 343 343 343 343 344 343 343 343 343 343 343 343 343 343 343 343 343 343 344 344 344 344 344 343 342 342 342 342 342 342 342 343 344 344 344 345 345 342 338 336 335 336 340 344 349 352 354 355 357 359 359 357 355 352 348 348 351 352 350

ECMWFFLT1_925_thetae_060.txt.gz
Theta_e
350 353 354 355 357 356 358 359 360 362 362 363 363 363 362 361 361 363 363 364 365 365 365 364 363 363 362 362 362 361 361 361 361 361 362 361 360 360 361 360 360 359 358 358 360 360 361 361 360 360 363 363 361 361 361 361 360 359 360 359 358 357 356
349 351 354 354 356 357 358 359 362 362 361 362 363 362 362 361 361 362 362 364 365 365 365 364 364 363 362 362 362 362 362 361 362 362 361 362 361 360 361 361 360 360 359 357 358 360 362 362 361 361 364 364 362 362 362 362 361 360 360 360 358 358 357
350 350 353 354 356 357 357 359 360 361 361 361 362 362 362 361 362 362 362 364 365 365 365 364 364 363 361 363 363 363 363 362 362 362 361 361 362 361 360 361 361 360 360 359 358 360 362 363 362 361 362 363 363 362 363 362 361 361 360 359 358 358 358
350 350 352 354 356 358 357 358 360 361 360 360 361 362 362 362 362 362 362 363 364 364 364 364 364 363 362 363 364 363 364 363 363 363 362 361 361 361 361 362 361 360 360 360 359 360 361 363 363 362 362 363 363 363 363 363 361 361 360 360 359 358 358
351 351 352 353 355 357 357 356 358 360 360 359 360 361 361 362 362 361 362 363 363 364 364 364 364 363 363 364 364 364 364 364 364 363 363 362 362 362 361 362 362 361 360 360 360 361 362 363 364 364 363 363 362 362 363 363 362 361 360 359 360 359 359
348 351 353 353 353 355 356 355 357 359 359 358 359 361 360 361 360 360 361 362 363 363 363 364 364 364 363 363 363 364 364 364 364 364 363 363 362 362 362 362 362 361 361 361 360 361 362 362 362 363 364 363 362 361 362 363 362 362 361 361 360 360 359
343 351 353 353 353 353 354 354 356 357 359 357 358 359 359 359 360 359 360 362 361 362 363 363 364 364 364 364 363 364 364 364 365 364 363 364 363 363 363 362 362 362 362 361 361 361 362 363 362 362 363 363 362 362 362 363 364 363 363 362 361 360 360
342 351 353 353 351 352 353 354 354 356 358 357 356 358 358 358 358 358 359 360 360 361 361 362 363 364 364 364 364 364 364 364 365 364 364 364 364 363 363 363 363 362 362 362 362 362 362 363 363 362 363 362 363 363 363 364 365 364 363 363 361 361 361
340 351 353 352 349 349 351 353 354 356 357 357 356 356 357 357 357 358 358 359 358 359 360 360 362 364 364 364 364 364 364 365 365 365 365 364 364 364 363 364 364 363 363 362 362 363 362 362 362 363 363 363 364 364 364 365 365 364 363 363 362 361 361
347 354 354 351 349 349 349 350 355 357 357 359 358 356 357 356 356 357 357 357 357 357 358 359 360 362 364 364 364 364 364 365 364 364 364 364 364 364 363 363 363 363 363 362 361 363 363 363 363 363 364 364 364 365 365 365 366 365 364 362 362 361 361
355 357 355 351 349 349 348 350 356 359 360 361 359 357 357 356 356 356 356 356 356 357 357 358 359 360 363 364 363 364 365 365 364 364 364 364 363 363 362 362 363 363 364 363 362 362 363 363 363 363 365 365 364 365 365 365 366 365 364 363 362 361 361
352 353 354 354 351 351 351 353 357 360 362 362 359 358 357 357 355 355 355 355 356 357 356 358 358 360 362 363 363 363 364 364 364 364 363 363 362 362 362 361 361 362 363 363 362 362 362 363 363 363 364 365 365 364 365 365 365 365 364 363 363 362 361
347 348 353 355 354 354 355 357 357 359 362 362 359 357 357 356 355 354 355 355 355 356 357 357 359 359 361 363 362 363 364 364 364 363 363 362 362 362 361 361 361 361 362 362 363 362 361 361 363 363 364 364 365 364 365 365 365 365 364 363 363 362 361
347 346 352 355 356 358 359 359 359 360 362 361 359 358 357 356 355 354 355 356 355 355 356 357 358 358 360 361 362 363 364 365 364 364 363 362 363 362 361 361 361 361 361 361 362 362 361 360 362 363 364 364 364 364 364 365 365 365 365 363 363 362 362
346 343 348 353 357 361 362 362 363 361 360 360 357 357 357 355 355 355 355 355 355 355 355 356 358 359 359 361 363 363 364 365 365 364 364 363 363 363 363 362 362 362 362 362 362 362 361 360 360 363 364 364 364 364 364 364 365 365 364 363 363 362 362
338 337 340 346 353 358 361 363 364 363 361 360 358 357 357 356 355 355 355 355 355 355 354 355 358 359 359 361 363 363 364 365 365 365 365 364 363 364 363 362 362 362 362 362 362 362 362 361 361 361 363 364 364 364 364 364 364 363 361 361 361 361 361
333 334 336 341 347 352 357 360 363 364 362 360 359 359 358 357 357 355 354 354 355 354 354 355 358 360 360 362 363 363 365 366 365 365 366 364 364 365 364 363 363 363 363 363 363 363 363 362 362 361 362 364 364 364 364 364 362 360 359 359 358 359 361
334 336 340 345 348 351 354 357 361 363 362 359 359 360 358 358 358 356 354 354 354 354 354 354 358 361 361 363 364 365 366 366 366 366 366 365 365 364 365 364 364 363 364 364 364 364 363 363 363 362 361 362 364 364 364 364 362 359 358 358 356 356 359
335 334 340 350 355 355 353 352 354 358 359 358 357 357 358 357 358 356 355 354 354 354 353 354 357 361 364 363 364 365 365 366 367 366 366 366 365 364 365 365 364 364 364 364 364 364 364 363 363 363 362 362 363 364 364 364 362 360 358 357 356 354 356
332 332 340 351 356 355 354 355 354 354 356 357 355 354 355 356 356 356 355 353 353 354 354 354 357 361 364 364 364 365 366 366 367 366 366 366 365 365 366 365 365 365 363 364 364 364 365 364 364 364 364 363 363 364 364 364 363 361 359 357 356 355 354
333 337 346 355 360 362 364 364 361 356 355 354 353 352 352 354 354 355 355 354 353 354 355 355 357 361 364 364 364 365 366 366 366 365 365 366 365 365 365 365 365 365 363 363 364 365 365 365 364 364 364 364 364 363 364 364 363 362 360 358 356 355 354
335 344 353 360 365 367 369 368 366 363 359 355 353 351 351 352 353 352 354 354 353 355 356 356 358 360 364 365 364 364 365 365 364 364 365 365 365 365 365 365 365 365 364 363 363 364 365 365 365 365 364 365 364 364 364 364 362 361 360 358 357 356 354
347 355 359 361 362 365 366 366 367 367 363 357 353 351 350 351 352 352 354 354 354 355 356 358 360 361 363 365 364 363 363 363 364 364 364 365 365 365 365 365 365 365 365 364 363 364 365 365 365 365 364 365 365 364 365 364 363 361 360 358 357 356 355
352 356 357 359 360 362 364 365 366 366 364 359 353 351 350 350 352 353 354 354 354 356 356 357 360 362 363 364 363 361 363 363 364 365 365 364 365 365 365 365 365 365 365 364 364 363 363 364 365 365 365 365 364 365 365 364 363 361 359 358 357 356 355
354 354 356 359 359 360 363 365 364 362 360 357 354 352 351 350 351 352 354 354 354 354 356 357 359 362 363 362 361 361 363 363 364 365 365 365 365 364 364 365 364 365 365 364 364 363 363 363 364 365 365 364 364 364 363 363 363 361 360 359 357 357 356
357 356 356 359 359 360 362 364 364 361 358 358 358 355 351 352 352 352 354 355 354 354 356 358 359 362 362 362 361 362 362 363 364 365 364 365 365 365 364 365 364 364 364 364 364 363 363 363 363 365 365 365 364 363 362 361 362 361 360 359 357 357 356
356 356 356 358 359 359 360 361 363 363 362 363 362 358 354 353 353 354 356 357 356 355 357 359 361 363 363 362 361 361 362 363 364 365 364 364 365 365 364 364 364 364 364 364 364 364 364 364 363 363 365 364 364 363 362 361 361 361 360 359 358 358 356
355 356 356 356 356 357 359 361 361 361 361 361 360 358 357 356 355 356 358 359 358 357 358 361 363 364 364 363 361 361 363 364 364 365 364 363 364 365 365 365 365 364 365 365 365 365 365 365 364 363 364 364 363 362 361 361 361 360 360 359 358 358 356
356 356 356 357 355 356 358 360 360 360 360 361 362 360 358 359 360 361 363 365 364 362 361 363 363 362 362 362 362 361 362 363 363 364 363 362 363 364 366 366 365 365 365 366 366 365 364 364 364 364 363 363 362 361 361 361 361 361 360 359 358 358 357
355 355 356 357 356 356 357 358 358 358 358 360 364 363 362 364 366 367 367 367 366 364 362 361 362 362 362 361 361 361 361 361 362 362 362 362 363 364 366 366 366 366 366 366 365 365 364 363 363 363 363 362 361 361 361 361 361 362 361 360 358 358 357
354 355 356 356 356 357 357 357 357 357 356 358 360 362 364 364 364 365 364 364 364 364 363 361 361 361 361 361 362 362 361 361 361 363 363 363 364 365 366 367 366 366 365 365 364 364 363 363 363 363 363 362 362 362 361 361 361 363 362 361 359 358 357
353 354 355 355 356 357 356 357 356 357 357 356 356 357 359 359 360 361 362 362 363 364 365 364 362 361 361 361 362 362 362 362 362 363 364 364 365 365 365 365 365 364 364 363 363 363 363 363 362 362 362 363 363 363 362 362 362 363 364 362 360 358 356
351 353 354 354 354 355 356 356 356 356 356 355 355 355 355 355 357 358 359 360 363 364 366 367 366 365 364 363 362 362 361 361 361 362 363 363 364 364 363 363 364 364 364 364 363 364 364 363 363 363 362 362 363 362 363 363 363 364 366 363 359 357 356
350 352 352 353 353 354 354 355 355 354 354 353 353 352 352 353 353 354 356 358 360 362 365 366 366 366 366 366 365 364 363 363 361 361 362 362 362 362 361 361 361 362 362 363 363 364 364 364 364 363 363 363 363 362 363 364 363 364 365 362 358 356 353
349 350 351 351 352 352 352 352 353 352 351 351 350 350 350 350 350 351 353 354 355 357 360 360 361 362 363 362 363 362 363 363 362 361 363 363 362 363 363 363 362 363 363 363 363 364 363 362 363 363 364 363 363 363 364 363 364 364 364 363 361 358 354
348 350 350 350 350 350 350 350 350 350 350 349 349 348 348 348 348 349 350 351 352 353 354 355 356 356 355 355 355 356 357 358 358 358 360 360 359 360 358 355 353 354 356 357 357 357 357 357 356 356 355 354 356 361 362 361 361 362 362 361 361 360 357
347 348 349 349 349 349 349 349 349 349 348 348 348 348 347 347 347 348 348 349 350 350 351 352 353 352 351 350 350 350 352 352 352 353 353 352 352 352 351 348 343 340 339 339 339 339 341 342 341 341 340 339 342 346 349 350 353 355 356 356 356 357 358
347 347 348 348 348 348 348 347 347 347 347 347 347 348 347 347 347 347 348 348 349 349 349 350 351 350 349 348 347 348 348 349 349 349 349 348 348 348 348 348 346 343 340 337 335 334 334 333 333 333 333 332 332 333 335 335 337 339 341 342 344 348 353

ECMWFFLT1_925_thetae_063.txt.gz
Theta_e
346 347 349 355 359 360 361 363 362 363 364 365 364 363 362 364 363 365 367 368 369 368 368 366 364 365 363 363 363 362 363 364 364 363 362 361 359 359 362 363 363 361 359 359 361 362 361 359 359 359 362 364 364 364 364 364 363 362 363 362 360 358 357
346 344 346 350 356 360 361 364 364 364 364 365 367 364 363 364 363 365 367 369 370 369 369 368 366 366 364 364 363 363 364 364 365 363 361 360 360 360 362 362 363 362 360 357 357 359 361 361 360 359 360 362 364 364 364 364 364 363 362 362 361 359 359
343 344 347 347 352 359 362 363 365 364 365 365 367 365 363 365 364 365 367 369 370 370 370 369 368 366 366 365 365 365 365 365 365 363 361 360 360 360 360 361 362 361 360 358 355 357 360 361 362 361 360 361 363 363 364 363 364 363 362 363 362 361 360
342 344 346 346 352 360 361 361 364 366 365 365 367 367 365 365 365 366 367 369 370 370 370 370 369 368 367 368 366 366 366 365 364 364 361 359 360 361 361 361 362 360 359 359 356 354 356 360 363 363 362 362 362 363 363 363 362 363 363 362 362 360 360
344 344 345 346 352 360 361 361 363 366 366 365 367 367 366 366 365 366 367 369 369 370 371 369 368 368 368 367 367 365 366 366 364 364 362 360 360 362 361 361 361 361 360 359 358 356 355 358 361 364 363 363 364 363 363 363 362 363 364 363 362 361 359
342 345 344 347 352 358 360 360 361 365 365 365 366 367 367 366 365 366 367 368 369 369 370 369 369 368 368 367 366 366 366 366 365 364 364 362 362 361 362 361 360 362 361 360 360 359 358 358 361 363 363 363 362 360 360 362 362 362 364 364 363 361 360
339 346 348 348 351 356 358 360 360 363 365 364 365 367 367 365 366 365 367 367 368 369 369 369 368 368 369 368 366 366 367 367 367 366 365 364 363 362 362 362 361 361 361 361 361 360 360 360 361 362 363 363 361 360 358 361 362 361 363 364 363 362 360
341 346 348 349 351 352 356 360 359 361 364 364 363 367 366 366 365 365 366 366 366 367 367 367 368 368 368 368 366 366 367 367 368 367 366 365 364 363 363 363 364 363 362 362 362 361 361 362 362 362 362 363 362 361 359 360 363 362 362 364 365 362 361
340 345 346 348 346 347 352 357 359 362 364 363 363 364 365 366 365 364 364 364 364 365 366 365 365 368 369 368 366 366 367 368 368 368 368 366 365 364 363 363 365 365 365 363 363 363 363 362 363 363 363 363 362 364 362 361 362 363 362 364 365 363 361
339 342 346 348 347 348 349 352 360 364 365 366 365 364 365 365 365 364 363 363 362 362 364 363 364 366 369 368 367 367 367 368 368 367 368 366 364 365 363 361 364 366 366 365 363 363 364 363 363 364 365 364 363 364 364 363 363 364 363 364 366 365 362
350 351 349 349 351 351 350 354 366 369 371 372 367 363 364 365 364 364 362 363 362 361 362 361 360 365 368 368 367 367 368 367 367 367 367 365 364 362 361 360 361 364 366 366 363 361 363 365 364 365 367 366 364 364 366 365 365 366 365 364 365 367 364
361 361 359 357 355 353 356 364 371 372 373 372 365 362 364 364 363 362 363 362 362 361 362 361 360 363 367 367 366 366 368 368 367 366 366 364 363 361 361 359 360 361 364 366 364 361 361 365 366 366 367 367 366 365 366 367 367 367 366 364 364 366 365
352 354 357 356 355 356 361 366 368 370 371 367 363 362 363 362 362 362 362 362 361 361 362 360 360 362 366 367 365 366 368 369 368 366 365 364 362 360 360 359 358 358 361 364 366 363 360 362 366 367 367 368 368 366 367 368 367 367 367 366 364 366 366
341 341 351 356 357 358 359 361 363 368 368 364 362 362 361 361 361 362 361 362 361 361 360 361 361 363 366 368 366 367 369 370 370 367 365 364 364 361 360 359 358 358 360 362 365 365 361 360 363 367 367 368 369 368 367 368 368 368 369 368 366 365 366
337 337 349 357 361 363 363 362 364 366 366 364 362 361 362 360 361 361 362 362 362 361 359 361 362 364 366 368 367 368 369 370 370 369 366 364 366 365 362 360 360 359 359 362 363 365 363 360 359 365 367 368 369 368 368 368 368 368 369 369 368 366 366
333 336 344 351 356 361 365 364 365 366 367 367 365 364 363 362 361 361 361 362 361 361 359 361 363 365 366 367 368 369 370 372 372 371 370 366 367 369 365 361 361 361 360 362 362 364 364 363 360 361 365 368 369 369 368 368 369 367 366 367 367 368 366
334 336 338 342 350 356 361 363 366 367 369 369 368 365 363 361 361 360 359 360 360 360 359 359 363 365 365 367 370 370 372 373 373 372 371 370 368 370 368 364 363 362 362 362 363 364 364 365 363 361 362 365 369 369 369 369 368 366 365 364 365 366 366
333 335 335 338 343 350 355 357 361 367 369 366 367 366 363 362 362 360 360 359 359 359 359 359 362 365 365 367 369 371 373 373 374 373 372 371 370 370 370 368 366 364 364 364 365 365 365 365 366 364 362 363 367 369 370 369 367 365 364 363 362 362 364
332 333 333 338 343 348 351 350 352 359 365 366 365 365 362 361 361 361 360 358 358 358 358 359 361 364 366 367 368 371 373 373 374 374 373 373 372 370 371 370 368 367 366 367 367 367 367 367 367 367 365 363 365 368 369 369 368 365 363 363 361 360 361
332 333 335 336 338 340 349 354 352 353 358 364 363 361 360 359 360 361 360 358 358 358 359 358 359 363 367 367 368 371 373 373 375 374 374 374 372 371 372 371 370 368 367 367 368 368 369 368 368 368 368 366 365 366 368 369 369 367 364 362 362 360 358
334 333 332 334 339 345 355 364 362 357 356 357 357 357 359 359 358 360 360 358 358 359 359 360 360 363 367 368 370 372 373 374 374 374 374 374 373 371 371 371 371 370 367 368 368 368 369 369 369 369 368 368 366 365 366 368 368 368 366 363 362 360 360
332 332 335 347 359 365 369 370 366 363 364 361 356 355 356 357 359 359 360 359 357 358 359 360 360 362 367 368 370 371 374 373 373 374 374 374 372 373 371 372 372 371 369 367 367 368 369 369 369 368 368 369 367 366 366 367 366 367 367 365 362 361 360
335 334 337 352 363 368 371 370 368 368 369 368 361 355 353 356 358 359 360 358 357 358 359 359 360 363 367 370 371 371 373 373 373 374 373 373 373 372 372 371 372 371 370 368 367 367 368 370 369 369 369 368 368 368 366 366 366 365 366 366 364 362 360
335 331 336 354 363 363 366 368 370 370 371 370 366 359 354 354 357 359 360 359 358 358 358 359 360 362 366 370 372 371 371 372 372 373 373 373 373 372 372 371 371 371 370 369 367 366 366 368 369 368 369 368 368 368 368 367 367 366 366 365 365 363 361
335 341 352 362 362 361 365 370 371 370 368 369 370 365 357 354 356 358 359 359 358 357 359 359 361 363 365 370 371 370 370 371 371 373 373 372 372 371 371 370 370 371 370 369 368 366 365 366 367 368 369 369 368 368 367 368 368 367 366 366 364 363 362
351 357 360 364 362 363 367 369 369 370 367 366 367 364 358 355 356 357 359 360 358 358 358 360 362 364 365 368 370 370 370 370 371 372 371 371 371 369 370 370 370 369 370 369 368 367 366 365 365 367 369 368 369 369 367 367 368 367 367 366 364 363 361
362 362 360 362 364 365 367 368 368 370 369 370 369 365 357 356 356 359 360 361 361 360 359 361 362 365 366 367 369 368 369 370 371 371 370 369 370 369 369 370 369 368 369 369 368 367 368 367 365 366 366 366 368 369 368 367 367 367 367 366 365 364 362
360 360 361 363 362 362 365 368 367 365 366 368 368 366 360 357 358 360 360 361 362 361 360 361 364 365 368 370 368 367 368 368 369 370 369 368 369 369 368 368 369 368 368 368 368 368 368 367 366 366 365 365 366 366 367 367 367 367 366 366 365 364 363
361 362 362 364 363 361 365 367 367 366 367 366 364 363 362 360 359 360 361 362 362 361 359 362 364 367 368 369 367 367 367 367 368 369 369 368 368 369 369 369 368 369 368 369 369 368 367 368 368 366 365 364 364 364 364 365 366 365 366 365 365 364 363
362 362 362 363 362 362 364 367 366 366 368 369 366 363 363 362 362 362 363 364 364 361 361 364 367 369 370 369 367 366 365 366 367 368 368 369 369 370 371 370 369 368 369 369 368 368 367 366 366 366 365 364 364 364 363 363 364 365 364 364 364 363 363
360 362 362 362 362 362 362 363 365 364 365 368 368 366 366 365 366 366 368 369 367 365 366 367 369 369 369 368 367 366 364 365 367 369 369 368 368 369 370 370 368 368 368 369 368 366 366 365 364 365 365 364 365 365 364 362 361 362 363 363 363 362 362
360 361 361 360 360 361 361 361 362 361 361 362 363 365 367 367 369 369 368 367 368 368 367 368 367 367 367 366 366 365 364 364 366 366 366 366 367 368 368 368 368 367 367 367 367 366 365 364 364 364 364 364 364 365 364 364 363 364 363 363 363 362 362
358 360 360 359 359 360 360 360 360 361 360 359 360 362 363 364 365 366 366 366 368 368 368 366 366 366 366 366 366 365 364 364 363 363 366 367 366 366 366 365 365 366 366 366 365 365 366 365 363 363 363 363 362 363 363 363 364 364 363 363 363 361 360
356 358 358 358 359 359 360 360 359 360 360 359 359 358 359 360 362 363 364 366 367 368 369 368 366 366 366 366 366 365 366 365 364 365 366 366 364 364 365 365 364 365 365 365 365 365 365 365 365 364 363 363 363 364 363 364 366 364 361 358 354 352 351
354 356 357 358 358 358 358 358 358 358 358 358 357 358 358 359 360 361 363 365 366 368 368 369 368 368 368 367 367 366 366 366 364 365 365 363 363 365 364 363 365 367 364 359 358 360 361 362 363 360 357 357 357 357 358 358 357 352 346 341 338 336 336
353 354 355 357 355 356 356 356 355 355 355 355 355 355 355 356 356 358 359 361 364 365 365 366 366 365 365 366 365 363 364 364 364 365 364 363 363 362 354 349 352 357 353 346 344 347 349 350 349 347 344 344 342 341 342 340 338 334 330 329 329 328 327
352 352 354 354 354 354 354 353 353 353 353 353 352 352 352 353 354 354 355 356 358 359 359 359 359 358 358 359 358 359 359 361 361 361 360 361 361 356 348 341 339 339 337 334 335 336 337 336 336 334 334 333 332 332 332 331 329 327 327 328 329 329 329
352 353 353 352 353 352 352 352 351 351 351 351 351 350 350 351 351 351 352 352 354 355 355 354 354 353 354 353 354 354 354 355 356 355 354 354 355 352 348 344 342 339 335 332 332 332 331 331 332 331 331 331 330 331 330 329 329 329 329 331 331 331 332

ECMWFFLT1_925_thetae_069.txt.gz
Theta_e
352 352 353 354 355 356 355 356 354 352 353 354 356 355 356 356 355 356 356 355 356 356 357 355 355 357 357 356 355 355 355 356 356 357 357 356 358 359 358 355 357 357 356 357 357 357 356 356 357 359 359 359 360 361 362 363 361 361 360 360 360 358 357
352 353 354 354 355 356 354 355 352 352 354 356 355 355 356 356 355 356 357 356 356 357 357 357 356 356 358 357 356 356 356 356 357 357 358 358 358 360 360 357 357 357 356 356 356 356 356 357 358 359 360 360 361 361 361 362 362 361 361 360 360 359 358
353 354 354 354 355 356 355 354 352 351 354 356 356 355 357 356 356 357 357 357 356 357 357 357 356 356 358 358 357 356 357 357 356 357 358 358 359 361 361 359 357 357 356 355 356 357 357 359 359 359 360 360 361 360 361 362 362 361 361 361 360 360 359
356 355 354 354 355 355 355 357 355 352 353 355 356 355 356 357 357 357 357 358 356 357 358 358 357 357 358 359 358 357 357 357 358 357 358 359 359 360 361 361 358 356 356 356 355 357 358 359 360 360 360 361 360 360 360 361 361 361 361 361 361 360 360
355 354 353 354 355 354 356 356 355 353 352 354 355 356 356 357 358 358 358 358 358 357 358 358 358 358 358 359 359 358 358 358 358 358 358 359 360 360 361 361 359 357 355 355 356 356 358 359 360 360 360 360 360 360 360 360 360 361 361 361 362 361 360
353 354 354 354 354 354 355 355 354 354 353 355 355 355 357 358 359 359 359 359 358 358 358 358 359 359 359 359 359 359 359 358 359 359 359 360 360 360 361 360 360 359 357 356 357 358 358 358 359 360 360 360 360 360 360 360 361 361 361 361 361 361 360
350 351 352 353 353 353 354 354 354 353 352 354 355 356 357 358 360 360 360 360 360 359 359 358 359 360 360 360 360 360 359 358 359 359 360 360 360 361 360 360 361 361 359 358 357 359 360 360 359 360 360 360 360 361 360 361 361 361 361 361 361 362 362
350 351 352 352 352 352 353 354 354 353 353 353 355 357 357 359 361 361 360 362 361 361 360 359 360 360 361 361 361 361 360 359 359 359 360 361 361 361 360 359 360 360 361 360 360 360 361 361 360 359 360 360 361 361 361 361 362 362 362 362 362 362 362
349 350 351 351 351 351 352 353 352 353 353 353 356 360 359 360 362 361 362 362 362 362 361 361 360 360 361 362 361 360 360 360 360 360 361 361 361 361 361 360 359 359 360 361 360 361 360 361 361 360 360 360 360 361 362 362 362 363 364 363 363 363 362
348 350 352 351 351 352 353 352 353 355 354 355 356 360 361 362 362 362 362 363 363 363 362 362 361 361 361 361 361 362 361 360 361 360 361 362 361 362 361 360 359 359 359 360 360 361 361 359 359 359 361 361 359 360 361 363 362 363 364 364 363 363 362
347 348 351 350 351 353 353 352 353 356 355 354 355 358 361 361 363 363 362 363 364 364 363 363 363 362 361 362 361 362 361 361 362 361 361 362 362 361 361 360 359 358 357 359 359 360 360 360 358 358 360 361 361 360 361 361 362 363 363 364 364 363 363
345 348 351 349 350 352 353 354 357 357 356 355 354 357 361 362 364 363 362 364 364 366 366 365 364 363 362 362 361 362 362 361 361 361 361 361 362 362 361 360 360 358 357 357 359 359 359 360 359 357 357 359 360 361 360 360 361 362 362 362 363 363 362
348 350 351 349 350 352 355 358 360 360 360 357 357 359 361 363 364 363 364 363 364 367 368 367 366 365 363 362 362 362 362 361 361 361 361 361 361 361 361 360 359 358 358 357 357 358 359 359 359 359 357 357 358 360 361 361 361 361 362 362 362 362 362
350 350 350 352 351 354 356 360 363 364 365 363 361 363 365 364 364 364 364 364 364 367 369 368 368 367 366 364 362 362 362 362 361 360 361 361 360 360 360 359 358 357 357 357 357 357 358 359 359 359 358 358 356 357 360 361 362 361 362 362 362 362 362
349 348 350 352 351 355 357 360 364 365 366 366 364 364 367 365 365 365 364 365 365 366 368 369 369 368 367 366 363 362 362 362 361 361 361 361 360 359 359 358 357 356 356 358 357 357 357 358 359 359 359 359 358 357 358 360 362 362 361 362 362 361 362
347 346 351 354 355 356 358 358 362 362 362 367 366 365 367 367 366 366 365 365 364 365 367 369 370 369 368 367 366 364 362 362 362 361 361 361 360 360 359 358 358 356 355 356 357 357 356 356 357 359 359 359 360 360 359 359 360 361 361 361 360 361 361
348 349 353 354 353 355 357 358 361 360 362 366 365 365 366 368 368 366 365 366 365 365 366 367 369 369 368 368 368 365 363 363 362 362 361 362 362 361 359 359 358 357 355 356 357 358 357 356 356 357 359 359 359 360 361 361 360 360 361 361 361 361 361
360 363 363 361 362 366 368 366 364 364 365 363 363 365 366 367 369 367 366 367 366 365 366 367 368 368 368 369 368 367 365 364 363 362 361 361 362 362 361 359 359 358 356 355 356 358 358 358 358 357 358 360 360 360 361 361 362 361 361 361 360 361 361
362 367 369 374 376 379 379 376 373 372 370 366 364 364 365 366 368 368 367 367 367 367 365 366 367 367 367 368 369 368 367 366 364 363 362 361 361 362 361 360 359 358 357 356 356 357 359 360 360 359 359 361 361 361 361 361 361 361 361 361 361 360 361
358 361 367 374 375 377 378 380 381 378 371 368 369 366 366 366 367 368 368 367 367 367 366 365 365 366 367 367 368 369 368 366 365 364 362 362 361 361 362 361 359 358 358 358 357 358 360 361 362 362 361 360 362 362 362 361 361 361 362 361 360 361 360
355 357 361 366 366 367 374 381 386 382 373 368 369 368 367 367 366 367 367 367 367 367 365 365 366 365 367 367 367 369 367 367 366 365 364 363 362 362 361 361 361 359 359 359 359 358 359 361 362 364 362 362 362 362 363 363 362 362 361 362 362 361 361
351 354 365 376 378 376 374 373 372 373 370 364 364 366 365 366 366 367 366 366 366 366 365 365 364 366 366 366 367 369 368 367 367 365 365 364 363 363 362 362 361 360 360 359 359 359 359 359 361 362 363 363 362 361 362 363 363 363 362 362 362 362 363
339 352 373 387 384 375 366 360 359 363 362 360 361 361 361 362 363 365 366 366 364 364 365 364 364 366 366 366 366 368 368 368 367 366 366 366 365 364 362 362 362 361 361 359 359 359 359 359 359 360 361 363 363 362 361 362 362 363 364 363 363 364 365
346 361 378 381 377 371 365 361 360 359 355 349 349 355 359 360 361 362 364 365 363 364 364 364 363 365 368 367 367 368 369 368 368 368 367 367 367 365 364 362 362 362 362 360 359 359 359 360 360 359 359 361 362 363 363 362 361 362 364 365 365 366 366
361 367 371 373 376 374 368 365 361 358 356 351 346 351 357 359 361 361 362 363 362 362 363 363 363 365 369 369 367 367 369 368 368 369 368 368 368 366 366 365 363 363 363 362 361 360 359 359 360 360 360 360 361 362 363 363 363 362 363 365 366 367 367
364 364 365 365 368 365 360 361 360 360 364 363 357 356 358 360 360 360 361 361 362 361 361 362 363 364 367 370 369 369 369 370 369 369 369 369 369 369 368 366 364 364 364 364 364 361 360 360 361 361 361 361 361 362 362 363 364 364 364 364 365 366 367
363 363 363 362 364 364 363 363 363 361 363 368 368 365 363 364 364 362 362 362 362 361 360 361 362 363 365 369 371 370 371 372 370 371 371 370 371 371 371 369 367 365 366 366 366 365 363 362 363 364 364 363 363 363 363 363 364 365 366 365 365 366 366
365 366 364 362 364 367 368 367 367 366 368 369 370 368 367 368 367 365 366 365 362 361 361 360 361 361 364 369 371 370 372 373 373 372 373 373 373 373 372 372 369 368 368 369 368 367 367 365 364 364 366 367 367 366 366 365 365 365 366 366 366 367 366
368 366 364 363 364 365 367 368 367 366 367 368 368 367 366 367 367 369 370 368 365 362 361 360 360 360 364 368 371 371 372 373 374 375 374 374 374 374 374 373 372 371 370 370 369 369 369 367 366 365 365 366 367 368 368 368 367 367 368 367 367 367 367
367 365 363 362 362 364 365 365 366 366 366 367 368 368 366 364 365 367 370 373 368 364 363 362 361 361 364 368 370 371 371 372 374 375 375 375 374 374 375 375 374 372 371 371 371 371 369 369 368 366 366 366 366 367 368 368 369 369 369 368 368 367 367
363 362 361 360 360 362 362 363 364 365 365 366 367 368 368 367 365 366 370 372 370 367 365 363 362 364 366 369 370 371 371 372 374 375 375 375 375 375 374 374 373 373 372 371 372 371 370 370 369 369 368 368 366 367 367 366 365 365 365 365 365 365 365
363 362 360 359 359 360 361 362 362 363 365 364 363 365 369 370 369 370 370 369 369 369 366 366 366 366 368 371 372 371 372 373 373 375 374 375 374 374 374 373 373 373 372 372 372 372 371 372 370 370 370 369 368 368 365 359 355 354 354 354 354 354 354
365 363 360 359 360 360 359 360 362 363 362 362 362 364 367 368 369 370 369 368 370 371 369 369 369 368 369 372 372 372 373 372 373 374 373 374 374 375 375 374 373 373 373 373 372 372 372 372 371 371 370 370 369 364 355 348 343 342 341 341 340 340 338
365 363 359 358 359 359 360 360 360 360 360 360 361 361 363 366 367 367 368 369 370 372 371 371 371 370 371 371 371 373 372 372 373 374 372 373 373 373 373 374 374 372 372 372 372 372 372 371 370 369 369 369 363 352 342 337 335 335 334 333 333 332 332
362 358 357 358 358 358 360 359 358 358 358 357 358 359 361 365 367 366 368 368 368 370 371 371 372 372 371 371 371 371 370 371 371 371 370 367 365 363 364 368 370 369 367 368 370 372 371 370 366 363 363 359 352 344 338 333 333 333 331 331 331 331 331
359 356 355 358 357 357 358 357 356 356 356 355 356 357 359 362 364 365 367 369 368 368 368 370 371 371 371 370 369 369 370 369 366 364 363 361 357 354 352 354 358 360 360 363 366 369 368 364 358 355 355 349 341 338 337 333 332 332 332 332 333 333 333
358 358 355 356 357 356 356 355 354 355 354 354 355 356 357 360 360 360 362 367 370 369 367 368 369 368 369 370 369 369 370 363 356 354 354 353 353 351 345 341 342 345 346 349 354 357 357 354 347 345 346 343 336 334 334 333 332 332 333 333 334 334 334
354 355 354 355 356 356 355 354 354 353 352 353 354 355 356 357 357 357 357 362 366 367 364 364 363 361 362 363 363 363 361 355 349 347 345 344 344 344 339 335 334 335 336 337 339 341 341 339 337 335 336 336 335 333 333 333 333 333 334 334 334 335 335

ECMWFFLT1_925_thetae_072.txt.gz
Theta_e
350 350 351 352 352 352 351 351 349 349 351 350 352 353 353 354 354 354 354 355 355 355 355 356 356 356 356 356 355 355 354 353 353 354 353 355 355 353 352 352 353 353 352 353 354 355 355 354 355 355 356 356 356 356 356 356 357 358 361 360 359 358 355
351 350 351 352 352 353 353 351 349 350 350 351 352 353 354 354 354 355 354 354 355 354 354 355 356 356 355 355 355 354 354 354 354 354 353 354 354 354 353 352 352 354 354 353 353 354 355 355 355 355 356 356 356 356 356 357 356 357 360 361 360 359 357
350 350 351 352 352 352 354 352 349 349 350 351 352 353 353 354 354 355 354 355 355 354 354 355 355 356 355 354 355 354 354 354 353 353 353 353 353 354 355 353 352 354 355 354 353 354 355 355 355 355 355 356 356 357 357 357 357 357 359 361 361 360 359
350 352 351 351 353 352 353 354 351 349 351 351 352 353 354 354 354 355 354 355 355 354 354 354 355 356 355 354 354 353 354 354 353 353 353 353 353 354 354 354 354 353 355 355 355 354 355 355 355 355 354 355 357 357 357 358 357 357 359 361 361 360 359
351 352 351 351 353 353 353 353 351 350 350 350 352 353 354 354 354 355 355 354 355 354 354 354 354 355 355 355 354 354 354 354 354 354 353 354 354 353 354 355 355 354 354 355 356 356 356 355 356 356 355 355 356 357 358 358 358 358 358 360 361 360 360
352 351 352 351 352 353 353 353 352 350 350 351 352 352 354 354 354 354 355 354 354 355 355 355 354 355 355 355 355 354 354 354 354 354 354 353 354 355 354 355 356 356 354 355 356 357 356 356 356 355 355 356 356 357 358 358 359 358 359 361 361 360 360
351 352 352 351 352 352 352 352 351 351 350 352 352 353 353 353 354 354 355 355 355 355 355 355 354 354 354 355 355 355 354 355 354 354 354 354 355 355 355 356 357 357 356 355 356 357 357 357 356 355 355 356 356 357 358 359 360 359 360 360 361 361 360
351 353 351 351 352 352 352 352 352 351 351 351 352 353 354 353 354 355 355 355 355 355 355 355 355 354 354 354 355 355 355 355 355 354 354 355 355 355 356 357 357 358 358 357 355 356 357 358 357 355 356 356 357 358 358 359 359 359 359 360 361 361 361
352 352 351 352 351 351 352 352 352 351 350 351 353 353 354 354 354 355 355 355 354 355 354 355 356 355 354 355 355 356 355 355 355 355 355 355 355 356 356 357 358 358 359 359 356 356 356 357 357 357 357 358 357 358 358 359 359 359 360 360 360 360 360
353 352 351 352 351 352 352 351 353 352 351 352 352 353 354 355 355 356 355 356 355 355 355 355 356 356 356 356 355 356 356 356 356 356 356 356 356 356 356 356 358 358 359 360 358 356 355 356 357 357 358 358 358 358 358 359 359 359 360 360 359 360 360
352 354 353 353 352 352 353 353 355 354 353 351 352 354 354 354 356 356 356 356 356 355 356 355 356 356 356 356 356 356 357 356 357 356 357 357 357 357 357 357 358 358 359 360 359 358 356 356 356 357 357 357 357 358 357 358 359 359 360 359 359 359 359
352 354 354 354 353 353 354 354 356 356 354 351 351 353 354 354 355 356 356 357 357 357 356 355 356 356 356 357 357 356 357 357 357 357 357 357 357 357 357 357 358 357 358 359 359 359 358 357 356 357 357 357 356 357 358 358 358 359 359 360 360 360 359
353 353 352 354 352 352 355 355 356 356 354 351 351 353 354 353 355 356 357 358 357 358 357 356 357 357 356 357 357 357 357 357 357 357 357 357 357 358 358 358 358 358 358 358 358 360 359 358 357 357 358 358 358 358 358 358 359 359 360 360 360 361 360
353 351 350 352 353 353 355 354 355 356 354 352 351 352 354 354 354 356 357 358 358 358 359 358 358 357 358 357 358 358 358 357 358 358 357 358 357 357 358 358 359 358 358 358 358 358 359 359 359 358 358 359 360 360 359 359 359 360 360 360 361 361 361
351 350 350 351 351 353 354 353 355 356 354 353 351 352 355 355 356 357 358 358 359 359 360 359 359 358 358 358 358 358 358 358 358 358 358 358 357 358 358 358 359 359 359 358 357 357 358 359 359 359 358 359 359 360 360 360 359 359 359 360 361 361 361
348 347 349 349 350 352 353 353 354 353 355 354 351 352 355 356 356 358 358 359 359 361 361 360 360 360 359 359 359 359 358 358 359 359 358 358 358 358 359 358 359 359 358 358 358 357 357 358 358 359 358 358 358 358 359 360 359 359 359 359 360 360 361
348 348 347 348 349 349 351 352 353 353 355 354 352 351 355 356 359 358 359 360 359 361 362 361 362 361 360 360 360 359 359 359 359 359 358 358 358 358 358 359 358 359 359 359 358 357 356 356 357 357 357 358 358 357 357 358 358 359 359 359 359 359 360
346 346 347 347 348 349 351 353 354 354 353 352 351 351 354 357 359 359 360 361 360 361 363 364 364 363 362 362 361 360 360 359 359 359 359 358 359 358 358 358 358 359 358 358 358 357 357 356 356 356 357 357 358 358 357 356 357 357 358 359 359 359 359
347 346 346 348 348 349 350 352 354 355 353 351 351 353 354 356 359 360 361 361 362 362 363 364 365 364 364 364 363 362 361 360 360 360 359 359 359 359 359 358 358 358 358 357 357 357 356 357 356 356 355 356 357 358 358 357 356 357 357 357 358 359 360
347 346 347 348 348 349 350 352 355 354 352 353 354 354 355 357 358 360 361 361 362 362 363 365 365 366 366 365 365 364 362 362 361 360 359 359 359 359 359 358 358 358 357 357 356 356 355 356 356 356 355 355 356 356 357 357 357 357 357 356 356 357 359
355 353 351 351 351 352 354 356 357 355 352 354 356 357 359 359 361 361 362 362 363 363 363 364 365 366 367 367 366 366 364 363 362 361 361 360 359 359 359 359 358 358 357 357 356 355 355 355 356 356 355 355 355 356 356 356 357 358 358 357 357 358 358
360 358 356 357 358 363 364 359 356 354 353 354 357 359 361 362 363 364 364 364 364 363 363 363 364 366 367 367 367 367 366 365 363 362 361 360 360 360 360 359 359 358 358 357 356 356 355 354 355 355 355 355 355 354 355 355 356 357 357 357 358 358 359
362 364 366 364 361 362 362 359 356 356 356 356 357 359 360 362 364 366 365 365 364 364 364 364 363 365 366 367 367 367 367 366 364 363 362 361 361 360 360 360 360 359 358 357 357 356 355 355 355 355 356 357 356 356 355 355 355 356 357 357 357 359 359
367 370 375 374 366 360 359 362 363 361 360 359 360 360 360 363 364 366 366 366 365 365 364 364 363 364 365 366 367 367 367 367 366 365 364 362 361 361 360 360 359 360 359 358 358 357 356 356 355 355 356 357 357 358 356 356 356 357 358 358 359 358 360
366 367 368 369 368 364 360 361 361 360 360 360 361 361 362 362 364 365 365 365 366 365 365 364 365 364 364 366 366 366 367 367 367 366 364 364 362 362 361 360 360 360 360 359 358 357 357 356 356 356 356 357 358 358 359 359 359 358 359 360 360 360 360
366 368 368 366 366 364 363 363 363 363 365 365 364 363 363 363 363 364 365 365 365 365 365 364 365 364 364 364 365 365 366 367 367 366 366 365 363 363 362 361 360 360 359 360 359 358 358 357 357 357 356 356 357 358 360 360 361 360 360 360 360 362 361
362 365 366 367 367 366 363 364 364 365 366 367 367 365 365 364 362 361 363 363 362 363 364 365 365 364 364 364 364 365 366 366 367 367 366 365 364 364 364 362 361 360 360 360 360 359 358 358 357 357 357 357 357 358 359 360 360 361 361 361 361 361 361
361 361 362 364 366 364 362 362 364 365 366 366 366 366 365 365 363 362 362 361 360 362 362 363 364 364 364 364 365 365 365 367 366 366 367 366 365 365 364 364 362 361 360 361 360 359 359 358 358 357 358 358 358 358 358 359 359 360 361 361 361 362 362
361 361 360 361 364 364 362 361 362 363 364 366 366 366 365 365 364 364 364 363 362 362 360 361 362 362 363 365 366 365 365 366 367 367 367 366 366 365 365 364 363 362 362 361 361 361 360 360 360 358 359 359 360 360 360 359 360 360 360 361 361 362 362
360 361 360 359 361 362 360 360 361 362 362 363 365 365 367 367 366 364 364 364 363 364 363 361 359 360 362 364 366 367 366 366 366 367 367 366 366 366 366 366 365 365 363 362 361 362 362 362 361 361 360 361 361 363 364 363 362 363 362 362 363 363 363
358 358 358 358 359 359 359 359 360 360 360 361 363 364 365 367 368 367 366 365 364 365 366 363 359 360 362 364 366 367 368 367 368 368 367 367 367 367 367 367 367 366 365 364 364 364 364 364 364 363 362 362 363 364 366 366 366 364 364 364 364 363 364
359 357 357 358 359 358 359 359 359 358 359 359 360 362 364 365 367 368 367 368 367 367 367 366 362 360 361 364 366 367 369 370 369 369 369 369 368 369 368 369 368 368 367 366 365 366 366 365 365 365 364 363 364 364 363 362 361 361 362 363 364 363 363
361 358 356 357 359 357 357 356 356 356 356 357 358 360 362 364 366 366 367 369 370 369 368 366 364 361 361 364 366 368 369 370 371 371 371 371 371 371 370 370 371 370 369 369 368 367 367 366 367 367 366 365 364 360 356 354 354 354 355 356 357 356 355
362 360 356 356 357 358 356 354 354 354 353 355 356 357 360 363 364 365 366 369 371 371 371 368 363 362 363 364 367 367 369 371 372 373 372 372 371 371 371 371 371 371 370 370 369 369 369 368 368 367 367 366 361 353 346 344 345 346 345 345 346 345 343
358 355 355 355 356 357 356 354 354 354 354 354 355 356 359 361 361 363 365 367 369 372 371 368 365 364 365 366 368 369 370 371 373 372 370 367 365 365 365 367 369 370 371 371 371 371 369 370 369 369 368 366 360 352 344 340 340 340 340 337 337 336 335
351 350 353 355 355 355 355 354 355 353 353 354 354 354 356 358 359 361 364 366 368 370 370 369 367 366 367 368 369 369 370 372 370 367 364 361 358 356 354 354 359 365 366 369 370 370 370 370 370 369 368 364 356 352 349 345 339 336 335 333 332 332 332
350 350 353 354 354 354 353 354 353 353 353 353 353 353 355 357 358 359 361 365 368 368 370 370 369 367 368 369 369 369 370 368 363 359 356 355 355 355 351 348 349 354 358 362 366 368 369 370 367 366 367 364 356 348 345 343 337 332 331 331 331 332 332
348 350 352 353 354 354 353 352 352 352 352 353 353 354 354 355 356 357 359 364 367 367 368 369 368 367 367 367 366 366 364 361 356 352 350 349 349 351 351 346 341 339 343 349 355 358 361 363 362 360 358 358 354 345 338 335 333 332 332 332 332 332 333

ECMWFFLT1_925_thetae_075.txt.gz
Theta_e
346 348 348 349 350 349 349 349 347 347 347 348 348 348 349 350 350 352 352 353 353 354 354 355 355 355 355 355 354 354 354 353 353 353 353 353 353 353 352 352 352 352 352 352 352 353 353 352 352 352 352 353 352 348 345 349 353 354 356 358 359 359 357
347 348 348 348 349 349 349 348 347 347 348 348 348 349 350 350 350 351 352 353 354 354 354 355 355 356 355 355 355 354 354 353 353 353 353 353 353 352 352 352 352 351 351 352 352 352 353 352 353 352 353 353 353 350 348 351 354 355 355 356 359 360 359
347 348 349 349 350 350 350 349 347 346 347 348 349 349 349 350 351 352 352 353 354 354 355 355 355 355 355 355 355 355 354 354 354 353 353 353 353 353 352 352 352 351 351 351 351 352 352 353 353 352 352 353 353 353 351 352 355 356 356 356 357 359 360
346 348 348 349 350 350 349 350 347 347 348 349 349 349 350 350 351 351 352 353 353 354 355 355 355 355 355 355 355 354 355 354 354 354 353 353 353 352 352 352 352 352 351 351 351 352 352 352 353 353 353 353 354 353 352 353 354 356 356 357 357 357 358
348 347 348 349 350 350 350 349 347 347 348 348 350 349 350 351 351 351 352 352 353 354 355 354 355 356 355 355 355 355 355 355 354 354 353 353 353 352 353 353 352 352 351 351 351 352 352 353 352 353 353 353 353 353 353 353 354 355 356 357 358 357 358
347 348 348 349 349 350 350 349 347 347 348 348 349 350 350 351 351 351 352 353 353 354 354 354 355 355 356 355 355 355 355 354 354 353 353 353 353 353 352 353 353 352 351 351 352 352 352 352 352 353 353 353 353 353 353 354 353 354 355 357 357 357 357
347 348 349 349 349 350 349 349 348 347 348 349 348 350 351 352 352 352 352 352 353 353 353 354 354 355 355 355 355 355 354 354 354 353 354 353 352 353 353 352 353 353 352 352 352 352 352 353 353 353 353 352 353 354 353 353 354 354 355 356 357 357 358
347 348 348 348 349 349 350 349 349 347 347 349 348 350 350 352 352 352 352 352 353 353 353 353 354 354 355 355 355 355 354 354 354 353 353 353 353 352 352 353 353 353 354 353 352 352 352 354 354 354 354 353 353 354 353 353 353 354 355 355 356 357 358
348 348 348 349 348 349 350 350 349 348 347 349 349 350 351 351 352 352 352 352 353 353 353 353 354 353 355 354 354 354 354 354 353 353 353 353 352 353 352 352 352 352 353 354 353 353 353 353 354 354 355 355 354 354 354 354 353 353 355 355 355 356 357
348 348 348 349 348 349 349 349 350 350 349 349 348 350 351 351 352 353 353 353 353 354 353 353 353 353 354 354 354 354 354 353 353 353 353 353 352 352 353 352 353 352 353 353 354 354 353 353 354 355 356 356 355 355 355 355 354 354 355 355 354 355 356
348 348 349 350 348 350 351 350 352 352 351 348 348 350 351 351 352 352 353 353 353 353 353 353 353 352 353 354 354 354 353 353 353 353 353 353 353 353 353 353 353 353 353 353 354 354 354 354 354 355 356 356 356 356 355 355 355 355 355 355 354 355 355
348 350 350 350 349 350 352 352 353 354 351 349 349 350 350 351 352 352 352 353 353 353 353 353 354 353 353 353 354 354 354 354 353 353 353 353 353 353 353 353 353 353 354 354 354 354 355 355 355 355 355 356 356 356 356 355 355 355 355 356 356 356 356
350 350 350 350 351 350 353 354 353 353 352 349 349 350 351 351 351 352 353 353 353 354 353 353 354 354 353 353 353 353 354 354 353 353 354 353 353 353 353 353 353 353 354 354 355 355 356 355 356 355 356 356 357 357 356 356 356 356 357 357 357 357 357
351 351 350 350 351 352 354 354 354 354 352 350 349 350 350 351 352 352 353 353 353 353 353 354 354 353 354 354 353 353 353 354 354 354 353 354 354 354 354 353 353 353 354 354 355 356 356 356 356 356 356 356 357 357 357 357 357 357 357 357 357 357 357
351 350 351 351 351 353 353 353 354 354 353 350 349 350 351 351 352 352 353 353 353 354 354 354 353 354 354 354 354 354 353 354 354 354 354 354 354 354 354 354 354 354 354 354 355 355 356 356 356 357 356 356 356 356 356 357 357 357 356 356 357 357 357
350 350 351 351 352 352 352 353 353 353 353 352 350 350 351 351 352 352 353 353 354 354 354 353 354 354 354 354 354 354 354 354 354 354 354 355 354 354 355 354 355 355 355 355 355 355 355 356 356 357 357 357 356 356 356 356 356 356 355 355 355 356 357
350 351 351 350 350 352 351 353 353 353 355 353 350 350 350 351 352 352 353 354 354 354 355 355 354 354 354 354 354 355 355 354 355 355 355 355 355 355 354 355 355 355 355 355 356 355 355 355 356 357 357 357 357 357 357 356 356 355 355 355 355 356 357
351 350 350 351 351 352 352 353 353 354 354 352 349 349 350 351 352 352 353 354 354 355 355 355 355 355 355 355 355 355 355 355 355 355 355 355 356 355 355 355 355 356 356 356 356 356 356 356 356 356 356 357 357 357 357 356 356 356 356 356 356 357 357
351 350 349 350 351 352 351 351 351 352 352 350 349 349 350 350 351 352 353 354 355 355 355 356 356 355 356 355 356 355 356 355 356 356 356 356 355 356 356 356 356 356 356 356 356 357 356 356 356 356 355 356 357 357 357 356 357 356 356 357 357 357 358
349 349 349 349 350 350 350 350 351 349 350 350 349 350 350 351 351 352 352 353 355 356 356 357 357 356 356 356 356 356 356 356 356 356 356 356 356 356 356 356 356 356 356 356 356 356 357 356 356 356 355 355 356 356 356 356 356 357 356 356 356 357 358
349 349 349 348 349 349 349 351 351 349 348 348 350 350 350 351 352 353 353 354 355 356 357 357 358 357 358 357 357 357 356 357 357 357 357 357 357 357 356 356 357 356 356 357 356 356 357 357 356 356 355 355 355 355 355 355 355 356 356 356 356 356 357
346 345 347 348 349 350 351 350 348 348 348 349 349 350 350 351 353 354 354 355 355 356 358 358 358 358 359 359 358 358 357 357 357 357 357 358 357 357 357 357 357 356 357 356 356 356 357 356 356 356 356 356 356 355 355 354 354 355 355 356 356 356 356
355 351 349 349 347 346 345 345 345 347 347 348 349 350 350 351 353 354 356 356 357 357 358 358 360 360 359 360 359 359 359 358 358 358 358 358 357 357 357 357 357 357 357 357 356 357 356 356 356 355 355 355 355 355 355 354 354 354 355 355 356 356 356
371 369 367 361 355 348 344 344 347 348 348 349 349 350 350 351 352 355 356 358 358 357 358 359 360 361 361 361 361 361 361 360 359 359 358 359 358 358 358 358 357 357 357 357 357 356 356 356 355 355 355 355 354 355 354 355 354 354 354 354 355 355 356
368 370 368 364 361 357 352 350 350 351 351 351 351 352 352 353 354 355 357 358 358 359 359 360 360 361 362 363 362 362 363 362 361 360 359 359 359 358 359 358 358 358 357 357 357 356 356 356 355 355 354 354 354 354 354 354 355 354 354 354 353 354 355
365 366 364 361 360 361 359 358 358 359 359 358 357 356 356 356 357 357 358 359 359 360 360 360 360 361 362 363 364 364 363 363 363 362 361 361 360 360 359 359 358 358 358 358 358 357 357 356 355 355 355 354 354 354 354 354 354 354 354 354 354 354 354
362 362 362 362 362 362 362 362 362 362 362 363 362 359 358 359 360 361 362 361 360 361 360 360 361 361 362 363 364 365 365 365 364 364 363 362 362 361 361 360 360 359 359 359 358 357 357 357 356 355 355 354 354 354 354 354 354 354 355 355 355 355 355
359 359 361 362 362 361 360 360 360 360 360 363 364 362 361 360 361 362 363 362 362 363 362 362 362 362 362 363 363 364 365 365 365 365 364 363 363 363 361 361 360 360 360 359 358 358 358 357 356 356 355 355 355 355 355 354 355 355 355 356 356 356 356
358 359 360 360 361 360 359 358 358 357 358 361 364 364 363 362 362 363 362 361 362 363 362 363 363 363 363 362 363 363 365 365 366 365 365 365 365 363 362 362 361 360 360 359 358 359 358 358 357 357 356 356 355 355 355 355 355 355 355 356 356 357 358
358 359 359 358 358 358 356 355 356 356 356 360 363 364 363 363 365 365 364 364 363 362 363 363 362 362 363 363 362 363 364 365 366 366 366 366 365 364 363 363 362 361 360 359 359 358 358 358 357 356 356 356 356 356 355 356 356 356 356 356 357 357 357
356 357 357 356 356 356 355 354 354 354 354 357 361 362 362 364 364 364 364 366 366 365 365 364 361 360 362 362 362 363 363 364 365 365 366 365 365 365 364 363 363 361 361 360 359 359 358 358 358 357 357 357 356 356 356 356 357 357 357 357 358 357 358
356 355 354 355 355 354 354 354 353 353 353 354 356 358 360 362 363 361 362 366 368 368 367 366 364 359 359 361 363 363 363 363 364 364 365 365 366 365 364 364 363 362 361 361 359 359 359 359 358 358 358 358 357 357 357 358 358 358 358 359 358 359 358
356 355 354 354 354 353 352 352 351 351 351 351 353 353 354 358 360 361 361 364 367 368 369 369 367 361 358 360 362 363 363 363 363 364 365 365 365 365 364 364 364 363 362 361 360 360 359 359 359 359 359 359 358 358 357 357 359 359 359 360 360 360 360
354 355 353 352 353 353 352 350 349 350 349 350 352 351 351 354 358 360 361 362 365 367 369 370 369 364 360 360 361 363 364 363 364 365 365 365 365 365 365 365 364 364 363 363 362 361 361 360 360 360 360 360 359 357 354 353 356 358 359 361 362 362 362
349 349 350 351 352 352 352 349 349 349 350 351 352 351 351 353 355 357 359 360 362 365 367 370 369 366 361 359 361 364 365 365 365 365 365 364 364 363 363 363 364 365 365 364 363 363 362 362 362 362 361 362 361 356 351 350 354 358 360 360 361 362 362
346 345 348 351 352 352 351 350 350 350 351 351 352 351 351 353 354 356 357 359 361 363 366 368 369 367 363 361 362 363 365 366 367 366 364 363 361 359 357 357 360 363 365 366 365 365 364 364 363 363 363 363 363 360 356 356 357 356 356 355 354 353 352
344 345 348 351 351 351 350 350 351 351 351 352 352 352 353 353 354 355 355 356 358 360 364 367 368 366 364 362 363 364 366 367 366 363 360 359 358 357 354 352 354 358 362 364 366 366 366 366 366 366 366 365 364 361 357 357 356 352 347 345 342 339 338
343 345 348 350 351 351 350 350 352 352 351 352 352 352 353 353 353 354 355 354 356 359 362 365 366 366 365 364 365 366 366 365 361 357 356 355 355 355 354 353 352 350 352 358 363 364 365 367 367 367 367 366 365 361 354 350 348 345 339 335 333 333 333

ECMWFFLT1_925_thetae_078.txt.gz
Theta_e
349 349 347 348 348 347 347 347 346 347 347 347 347 347 349 350 351 352 352 352 353 353 353 353 354 354 354 353 353 353 352 352 352 352 352 352 352 352 352 352 352 351 352 352 352 352 352 351 351 351 351 351 351 352 352 353 350 346 343 346 354 357 357
347 348 348 348 348 348 348 347 345 346 346 347 347 347 348 350 350 351 352 352 353 353 353 353 354 354 354 354 354 353 353 353 352 352 352 352 352 352 352 352 352 351 352 351 352 352 352 352 351 351 351 351 351 352 353 353 352 349 345 347 353 357 357
345 346 348 348 348 348 348 347 346 346 346 346 346 346 348 349 350 351 351 352 352 352 353 353 353 354 354 354 354 354 353 353 352 352 352 352 352 352 352 352 351 351 352 351 351 352 352 352 352 352 351 351 351 351 352 353 354 351 348 348 352 355 356
345 346 347 348 348 348 348 347 345 345 345 345 346 347 347 348 349 350 351 351 352 352 352 353 353 354 354 354 354 354 354 353 353 352 352 352 352 352 352 352 351 351 351 351 351 351 351 351 351 352 351 351 351 351 352 352 353 353 351 351 353 355 356
347 345 346 347 347 348 348 347 346 345 346 345 346 347 347 347 348 349 350 351 351 351 352 353 353 353 354 354 354 354 354 353 353 353 352 352 352 352 352 352 352 352 351 351 351 351 351 351 350 352 351 351 351 351 351 352 353 354 353 352 353 355 356
345 345 346 346 347 348 347 346 346 346 346 346 345 347 346 347 348 349 350 350 351 352 352 352 353 353 354 353 354 354 353 353 353 353 353 352 352 352 352 352 351 351 351 351 351 351 350 350 350 350 351 351 351 351 351 352 352 353 354 353 353 355 356
345 345 346 345 346 346 346 347 346 345 346 345 346 346 347 347 348 348 349 350 351 351 351 352 352 353 353 353 354 354 354 353 353 353 353 352 352 352 352 352 352 352 351 351 351 351 350 350 349 350 350 350 351 351 351 352 353 354 354 354 354 354 355
345 346 345 344 345 345 346 347 346 345 346 345 346 346 347 347 348 348 349 350 351 352 352 352 353 352 354 354 353 354 354 353 354 353 353 353 353 352 352 353 353 352 352 352 351 351 350 350 350 349 349 350 350 351 351 351 352 353 354 354 354 354 355
345 346 345 345 344 344 346 346 346 346 346 346 346 347 347 348 348 348 349 350 350 352 352 352 353 353 353 353 354 354 354 354 354 353 353 353 352 353 352 353 352 353 352 352 351 351 351 350 350 350 350 350 350 351 351 351 352 353 353 354 354 354 354
346 346 346 346 344 345 346 346 347 348 347 347 346 347 348 348 349 348 349 350 350 351 351 352 353 353 354 354 354 354 354 354 354 353 353 353 352 353 353 353 353 352 352 352 351 351 351 351 350 350 351 351 351 351 351 351 352 352 353 353 353 354 354
346 347 347 346 346 347 348 348 350 350 349 346 346 348 348 348 349 349 349 350 351 351 352 352 353 353 353 354 354 354 353 353 354 354 353 353 353 353 353 353 353 352 352 352 352 352 351 351 351 351 351 351 351 351 351 351 352 352 353 353 353 354 354
344 348 348 348 347 348 350 350 352 351 349 347 346 348 348 348 350 349 350 350 350 351 351 351 352 353 353 354 353 354 353 353 354 353 353 353 353 353 353 352 352 352 352 352 352 352 352 351 352 351 352 352 351 351 351 352 352 353 353 353 353 354 354
344 346 346 348 348 348 352 352 352 352 350 347 347 347 348 349 349 350 350 350 350 351 351 351 352 353 353 354 353 354 354 353 354 353 353 353 353 353 352 352 352 352 352 352 351 352 352 352 352 352 352 352 352 352 352 352 353 353 354 354 353 354 354
344 344 345 348 348 349 353 353 352 353 351 348 347 347 349 349 350 350 351 350 351 351 351 351 352 352 352 353 353 354 353 353 353 353 353 353 353 353 353 352 353 352 352 352 352 352 352 352 352 352 352 352 352 352 352 352 353 353 353 354 354 355 354
342 343 344 347 348 350 351 352 352 353 351 349 346 347 349 349 350 350 351 351 351 351 351 352 351 352 352 352 352 353 353 353 354 353 353 353 353 353 353 352 352 352 352 352 352 352 352 352 352 353 353 353 353 353 353 353 353 354 354 354 354 354 354
340 342 344 346 348 349 350 351 352 352 352 351 348 347 348 349 349 350 350 351 351 352 352 352 352 352 352 352 352 353 353 353 353 353 352 353 353 353 352 352 352 352 352 352 352 353 352 353 353 353 353 353 353 353 354 354 354 354 353 354 354 355 354
340 343 344 346 347 348 349 351 352 353 354 352 348 347 348 349 350 350 350 351 351 351 352 351 352 352 352 352 352 352 353 353 352 353 352 352 352 352 352 352 352 352 352 352 352 352 353 353 353 354 354 354 354 354 354 354 354 354 354 354 354 355 355
344 345 345 347 348 349 350 351 351 352 352 351 348 348 348 349 349 349 350 351 351 352 352 352 352 352 352 352 352 352 352 353 353 353 353 353 353 352 352 353 352 352 352 353 353 353 353 353 354 353 354 354 354 354 355 354 354 354 354 354 355 355 356
346 345 346 347 348 350 350 349 350 351 349 349 348 348 348 349 349 350 350 350 351 351 352 352 352 352 352 352 353 352 352 352 353 353 353 353 353 353 353 353 353 353 353 352 353 353 353 353 353 354 354 354 355 355 355 355 354 354 355 354 354 355 355
348 346 346 348 346 348 350 348 350 350 347 348 349 348 349 348 349 350 350 350 352 352 352 353 352 352 352 352 353 353 352 352 352 352 353 353 353 353 353 353 353 353 353 353 353 353 354 353 353 353 354 354 354 355 354 355 355 355 355 355 355 355 355
352 349 346 350 348 347 350 350 352 350 348 348 348 348 349 349 349 351 350 351 352 352 353 353 352 353 353 352 353 353 353 353 353 352 353 353 353 353 353 353 353 353 353 353 353 354 354 354 354 354 354 354 354 354 354 354 354 355 355 355 355 356 356
351 352 348 348 350 351 351 350 349 349 348 348 348 349 348 349 350 351 351 351 352 352 353 353 352 353 353 353 353 353 353 354 353 353 353 353 354 353 354 354 354 353 354 353 354 354 354 354 354 354 354 354 354 354 354 354 353 354 354 354 355 356 355
347 351 350 349 348 347 347 346 346 347 348 348 348 348 348 350 351 351 351 352 352 353 353 353 353 354 353 353 353 353 353 354 353 354 354 354 354 354 354 354 354 354 354 354 354 354 354 354 354 355 355 355 354 355 354 354 354 354 354 354 354 355 355
351 349 352 352 350 346 343 344 346 347 348 349 349 348 348 350 350 351 352 352 353 353 353 354 354 354 354 354 354 354 354 354 354 354 354 354 354 354 354 354 354 355 355 355 355 355 355 355 355 355 355 355 355 355 355 354 354 354 354 354 354 354 354
360 357 352 346 346 347 344 344 346 347 348 348 348 348 349 350 350 351 351 352 352 353 354 354 355 355 355 355 354 355 354 354 354 355 355 355 355 355 355 355 355 355 355 355 355 355 355 355 355 355 355 355 355 355 354 355 354 354 354 354 354 354 354
364 364 357 346 342 344 346 346 347 348 347 348 349 348 349 350 351 352 352 352 352 353 354 354 355 355 355 356 355 355 355 355 355 355 355 355 355 355 355 355 355 356 355 355 355 356 356 355 355 355 355 355 355 355 354 354 354 354 354 354 353 354 354
361 362 361 355 350 349 349 349 348 347 346 347 349 349 349 350 351 352 352 353 353 353 354 355 355 356 356 356 356 357 356 357 356 356 355 356 355 356 356 356 356 356 356 356 356 355 356 356 356 356 355 355 355 355 355 355 354 354 354 354 354 354 354
358 359 360 360 358 356 355 355 355 354 353 350 349 349 350 350 352 353 354 354 354 354 354 354 355 355 356 357 357 358 357 358 357 357 357 357 357 357 356 357 356 356 356 357 356 356 356 356 356 355 355 355 355 355 355 354 354 354 353 353 354 353 353
356 357 358 358 358 359 358 358 358 357 358 356 352 351 350 350 353 354 354 354 355 355 355 355 356 356 357 357 359 359 359 359 359 359 358 358 358 358 358 358 357 357 357 357 357 357 356 356 356 356 355 355 355 355 354 354 354 354 354 353 353 353 353
353 354 355 355 356 357 356 356 357 357 358 358 357 355 353 352 355 356 356 357 357 356 357 357 357 357 358 358 359 359 360 360 360 360 360 360 359 358 358 359 358 358 358 357 357 357 357 356 356 356 356 355 355 355 354 354 354 354 354 354 353 353 353
351 352 352 353 353 353 353 353 354 354 356 357 359 359 359 358 359 360 361 361 361 360 360 359 359 359 359 359 360 360 361 361 362 362 362 361 361 361 360 360 359 359 359 358 358 358 358 357 357 356 357 356 355 356 355 355 355 354 354 354 354 354 354
348 350 350 351 351 350 349 350 350 351 353 354 356 359 360 361 362 363 364 366 365 364 362 361 361 361 361 360 360 360 361 361 362 363 363 362 363 362 361 361 361 360 359 359 359 358 358 358 357 356 357 357 356 356 356 355 355 354 354 354 354 354 355
346 348 348 349 350 348 348 348 348 349 350 350 353 356 357 360 361 362 364 366 366 366 365 364 362 360 360 361 361 360 361 361 362 362 363 364 364 363 363 363 362 361 360 360 359 359 358 358 357 357 357 356 356 356 356 356 355 355 355 355 355 355 355
344 346 347 347 348 348 348 347 347 348 348 349 351 354 355 357 358 359 361 363 365 366 367 367 365 362 359 359 360 361 361 360 362 362 362 363 363 364 363 363 363 362 362 361 360 359 359 358 358 357 357 357 357 357 355 355 355 355 356 356 356 356 356
342 344 346 347 347 347 347 347 347 348 348 349 351 353 354 355 355 356 358 360 362 364 366 367 367 366 362 359 359 360 360 360 361 362 362 362 363 362 362 363 363 363 362 361 361 360 360 359 358 358 358 358 358 357 355 354 356 357 357 358 358 357 357
340 342 344 346 347 347 348 348 348 348 348 349 351 352 353 353 353 354 354 356 358 360 363 365 366 366 364 361 359 358 360 360 361 361 362 361 360 358 357 358 359 361 362 361 361 361 361 361 360 360 360 359 358 358 357 357 358 359 358 357 358 358 359
340 340 342 345 346 347 348 349 349 348 347 348 350 352 353 353 353 354 354 355 356 357 360 363 365 365 364 362 359 359 360 361 361 361 360 359 358 356 354 353 354 357 360 361 361 361 361 361 361 361 361 360 360 359 359 358 358 359 358 358 359 359 360
339 339 342 343 344 345 347 348 348 347 347 348 350 350 351 352 353 354 354 355 355 357 359 361 363 364 364 363 362 360 360 361 362 360 358 356 353 352 352 352 352 352 353 358 360 361 361 361 361 361 361 361 361 360 360 359 359 357 357 358 358 359 359